Location: Boston
(42.3580°N, 71.0600°W)
Time: 04:06:59
(UTC-05:00)

N. Korean satellite - Pass Details

Date: 07 October 2017
Orbit: 461 x 513 km, 97.2° (Epoch: 15 December)

Event Time Altitude Azimuth Distance (km) Brightness Sun altitude
Rises 19:01:17 0° 177° (S) 2,577 10.2 -9.4°
Reaches altitude 10° 19:03:24 10° 182° (S) 1,690 9.3 -9.8°
Maximum altitude 19:06:58 54° 260° (W) 605 7.5 -10.4°
Drops below altitude 10° 19:10:30 10° 339° (NNW) 1,673 9.6 -11.1°
Sets 19:12:35 0° 344° (NNW) 2,549 10.5 -11.5°
